Flag for Fiji Weather past 2 weeks in Lautoka, Fiji

Now
84 °F

Passing clouds.


Feels Like: 94 °F
Forecast: 82 / 89 °F
Wind: 5 mph from North

Location: Nandi

Current Time: Mar 2, 2015 at 7:45:35 PM

Latest Report: Mar 2, 2015 at 7:00 PM


Visibility: N/A

Pressure: 29.68 "Hg

Humidity: 79%

Dew point: 77 °F

Location of LautokaLocation

Historic Weather in Lautoka — Graph

°F

Lautoka temperature yesterday

Maximum temperature yesterday: 90 °F (at 11:00 AM)
Minimum temperature yesterday: 77 °F (at 3:00 AM)
Average temperature yesterday: 80 °F

Past Weeks' High & Low Weather Summary

 TemperatureHumidityPressure
High91 °F (Feb 22, 12:00 PM)100% (Feb 15, 9:00 PM)29.89 "Hg (Feb 15, 9:00 PM)
Low73 °F (Feb 18, 6:00 AM)62% (Feb 16, 12:00 PM)29.65 "Hg (Feb 24, 4:00 PM)
Average81 °F86%29.74 "Hg
* Reported Feb 15 6:00 PM — Mar 2 6:00 PM, Lautoka, Weather by CustomWeather, © 2015

Note: Actual official high and low records may vary slightly from our data, if they occured in-between our weather recording intervals... More about our weather records

Advertising

Lautoka weather history for previous 24 hours

 ConditionsComfort  
Time TempWeatherWind HumidityBarometerVisibility
6:00 PM
Mon, Mar 2
86 °FScattered clouds.7 mph75%29.68 "HgN/A
5:00 PM86 °FScattered clouds.10 mph70%29.65 "HgN/A
4:00 PM88 °FScattered clouds.9 mph70%29.68 "HgN/A
3:00 PM88 °FScattered clouds.10 mph70%29.68 "HgN/A
2:00 PM88 °FScattered clouds.12 mph66%29.68 "HgN/A
1:00 PM88 °FScattered clouds.9 mph66%29.71 "HgN/A
12:00 PM88 °FScattered clouds.8 mph66%29.74 "HgN/A
11:00 AM88 °FPassing clouds.7 mph62%29.77 "HgN/A
10:00 AM86 °FPassing clouds.5 mph66%29.77 "HgN/A
9:00 AM86 °FScattered clouds.3 mph70%29.77 "HgN/A
8:00 AM81 °FScattered clouds.3 mph84%29.77 "HgN/A
7:00 AM75 °FScattered clouds.5 mph94%29.77 "HgN/A
6:00 AM75 °FPassing clouds.No wind94%29.74 "HgN/A
5:00 AM75 °FPassing clouds.3 mph94%29.74 "HgN/A
4:00 AM75 °FPassing clouds.6 mph100%29.74 "HgN/A
3:00 AM75 °FPassing clouds.3 mph100%29.74 "HgN/A
2:00 AM75 °FPassing clouds.3 mph100%29.74 "HgN/A
1:00 AM75 °FPassing clouds.3 mph100%29.77 "HgN/A
12:00 AM77 °FPassing clouds.3 mph94%29.80 "HgN/A
11:00 PM
Sun, Mar 1
77 °FPassing clouds.7 mph94%29.80 "HgN/A
10:00 PM77 °FPassing clouds.2 mph100%29.80 "HgN/A
9:00 PM77 °FPassing clouds.1 mph100%29.77 "HgN/A
8:00 PM77 °FPassing clouds.2 mph100%29.77 "HgN/A
7:00 PM77 °FPartly cloudy.2 mph100%29.74 "HgN/A
Weather by CustomWeather, © 2015

See weather overviewHow to use our weather pages